Pine Bluff, AR

5:51 AM CDT on May 29, 2017 (GMT -0500)
Grider

Weather History for KPBF - September, 2012

Change the Weather History Date:

Friday, September 7, 2012

  Actual Average Record
Temperature  
Mean Temperature 84 °F 77 °F  
Max Temperature 96 °F 88 °F 108 °F (1925)
Min Temperature 71 °F 66 °F 51 °F (1988)
Degree Days  
Heating Degree Days 0 0  
Month to date heating degree days 0 0  
Since 1 July heating degree days 0 0  
Cooling Degree Days 19 12  
Month to date cooling degree days 143 92  
Year to date cooling degree days 2169 1850  
Growing Degree Days 33 (Base 50)    
Moisture  
Dew Point 74 °F    
Average Humidity 75    
Maximum Humidity 100    
Minimum Humidity 49    
Precipitation  
Precipitation 0.43 in 0.08 in 1.52 in (1963)
Month to date precipitation 0.94 0.50  
Year to date precipitation 31.43 33.69  
Snow  
Snow 0.00 in 0.00 in - ()
Month to date snowfall 0.0 0.0  
Since 1 July snowfall 0.0 0.0  
Since 1 September snowfall 0.0 0.0  
Snow Depth 0.00 in    
Sea Level Pressure  
Sea Level Pressure 29.86 in    
Wind  
Wind Speed 8 mph (SSW)    
Max Wind Speed 36 mph    
Max Gust Speed 45 mph    
Visibility 9 miles    
Events Rain , Thunderstorm    
T = Trace of Precipitation, MM = Missing Value Source: NWS Daily Summary

Daily Weather History Graph

Daily Weather History Graph

Search for Another Location

Airport or City:

Trip Planner

Search our weather history database for the weather conditions in past years. The results will help you decide how hot, cold, wet, or windy it might be!

Date:

Astronomy

Sep. 07, 2012 Rise Set
Actual Time 6:45 AM CDT 7:24 PM CDT
Civil Twilight 6:20 AM CDT 7:50 PM CDT
Nautical Twilight 5:50 AM CDT 8:19 PM CDT
Astronomical Twilight 5:19 AM CDT 8:50 PM CDT
Moon 11:40 PM CDT (9/7) 1:18 PM CDT (9/7)
Length of Visible Light 13h 29m
Length of Day
12h 39m
Waning Gibbous, 58% of the Moon is Illuminated
Sep 7
Waning Gibbous
Sep 8
Last Quarter
Sep 15
New
Sep 22
First Quarter
Sep 29
Full

Hourly Weather History & Observations

Time (CDT) Temp. Heat Index Dew Point Humidity Pressure Visibility Wind Dir Wind Speed Gust Speed Precip Events Conditions
12:53 AM 81.0 °F 88.6 °F 78.1 °F 91% 29.91 in 10.0 mi NE 3.5 mph - N/A   Partly Cloudy
1:53 AM 79.0 °F - 73.0 °F 82% 29.92 in 10.0 mi NE 8.1 mph - N/A   Scattered Clouds
2:53 AM 77.0 °F - 73.0 °F 88% 29.91 in 10.0 mi ENE 4.6 mph - N/A   Clear
3:53 AM 77.0 °F - 73.9 °F 90% 29.90 in 10.0 mi ESE 4.6 mph - N/A   Clear
4:53 AM 77.0 °F - 73.9 °F 90% 29.88 in 10.0 mi SE 5.8 mph - N/A   Clear
5:53 AM 77.0 °F - 75.0 °F 94% 29.87 in 10.0 mi SSW 4.6 mph - N/A   Clear
6:53 AM 75.9 °F - 75.0 °F 97% 29.88 in 8.0 mi East 3.5 mph - N/A   Clear
7:53 AM 79.0 °F - 75.9 °F 90% 29.89 in 10.0 mi SSE 3.5 mph - N/A   Clear
8:53 AM 82.0 °F 89.4 °F 75.9 °F 82% 29.89 in 10.0 mi South 6.9 mph - N/A   Clear
9:53 AM 84.9 °F 94.1 °F 75.9 °F 74% 29.89 in 10.0 mi South 6.9 mph - N/A   Clear
10:53 AM 88.0 °F 98.5 °F 75.9 °F 67% 29.89 in 10.0 mi South 5.8 mph - N/A   Clear
11:53 AM 91.9 °F 103.9 °F 75.9 °F 59% 29.88 in 10.0 mi SSW 5.8 mph - N/A   Clear
12:53 PM 93.9 °F 104.0 °F 73.9 °F 52% 29.87 in 10.0 mi SW 8.1 mph - N/A   Clear
1:53 PM 93.9 °F 105.4 °F 75.0 °F 54% 29.84 in 10.0 mi South 9.2 mph - N/A   Clear
2:53 PM 95.0 °F 105.2 °F 73.9 °F 50% 29.82 in 10.0 mi SSW 9.2 mph - N/A   Clear
3:53 PM 95.0 °F 105.2 °F 73.9 °F 50% 29.80 in 10.0 mi SW 10.4 mph - N/A   Partly Cloudy
4:53 PM 95.0 °F 105.2 °F 73.9 °F 50% 29.76 in 10.0 mi SSW 9.2 mph - N/A   Clear
5:53 PM 91.9 °F 103.2 °F 75.0 °F 58% 29.74 in 10.0 mi South 11.5 mph - N/A   Clear
6:53 PM 89.1 °F 101.4 °F 77.0 °F 67% 29.74 in 10.0 mi South 6.9 mph - N/A   Clear
7:53 PM 84.0 °F 92.6 °F 75.9 °F 76% 29.73 in 10.0 mi SSE 8.1 mph - N/A   Clear
8:53 PM 84.0 °F 91.9 °F 75.0 °F 74% 29.75 in 10.0 mi South 4.6 mph - N/A   Clear
9:48 PM 84.2 °F 92.3 °F 75.2 °F 74% 29.85 in 10.0 mi NW 15.0 mph 21.9 mph N/A Thunderstorm Clear
9:53 PM 82.9 °F 87.5 °F 71.1 °F 67% 29.85 in 10.0 mi NNW 25.3 mph 39.1 mph N/A Thunderstorm Partly Cloudy
10:00 PM 80.6 °F 83.2 °F 68.0 °F 65% 29.88 in 8.0 mi WNW 29.9 mph 42.6 mph N/A Thunderstorm Mostly Cloudy
10:08 PM 77.0 °F - 69.8 °F 78% 29.87 in 6.0 mi NW 35.7 mph 44.9 mph 0.00 in Rain , Thunderstorm Light Thunderstorms and Rain
10:18 PM 73.4 °F - 69.8 °F 88% 29.89 in 1.5 mi West 11.5 mph 41.4 mph 0.21 in Rain , Thunderstorm Heavy Thunderstorms and Rain
10:23 PM 71.6 °F - 71.6 °F 100% 29.88 in 1.0 mi NW 9.2 mph 26.5 mph 0.29 in Rain , Thunderstorm Heavy Thunderstorms and Rain
10:31 PM 71.6 °F - 71.6 °F 100% 29.90 in 3.0 mi West 11.5 mph - 0.31 in Rain , Thunderstorm Thunderstorms and Rain
10:53 PM 72.0 °F - 71.1 °F 97% 29.90 in 9.0 mi SSW 6.9 mph - 0.33 in Rain , Thunderstorm Light Thunderstorms and Rain
11:21 PM 71.6 °F - 69.8 °F 94% 29.92 in 8.0 mi SSW 11.5 mph - N/A Rain , Thunderstorm Thunderstorms and Rain
11:44 PM 71.6 °F - 69.8 °F 94% 29.90 in 10.0 mi SW 8.1 mph - 0.08 in Rain Light Rain
11:53 PM 72.0 °F - 70.0 °F 93% 29.88 in 9.0 mi SSW 8.1 mph - 0.09 in Rain Light Rain